SCP
0 -0 0 0 0 0 0 0 0 0 0 0 0 0 0 0 0 0 0 0 0 0 0 0 0 0 0 0 0 0 0 0
0 -0 -0 0 0 0 0 0 0 0 0 0 0 0 0 0 0 0 0 0 0 0 0 0 0 0 0 0 0 0 0 0
-0 -0 -0 -0 0 0 0 0 0 0 0 0 0 -0 -0 -0 0 0 0 0 0 0 0 0 0 0 0 0 0 0 0 0
0 0 -0 -0 0 0 0 0 0 0 0 0 0 -0 -0 -0 0 0 0 0 0 0 0 0 0 -0 0 0 0 0 0 0
0 0 -0 -0 0 0 0 0 0 0 0 0 0 0 -0 -0 -0 -0 -0 0 -0 0 -0 -0 -0 -0 -0 0 0 0 0 0
0 0 -0 -0 0 0 0 0 0 0 0 0 0 0 0 -0 -0 0 0 0 0 0 0 0 0 -0 -0 -0 0 0 0 0
0 0 -0 -0 0 0 0 0 0 0 0 0 0 0 0 0 0 0 0 0 0 0 0 0 0 -0 -0 -0 0 0 0 0
0 0 0 0 0 0 0 0 0 0 0 0 0 0 0 0 0 -0 -0 0 0 0 0 0 0 0 -0 -0 0 0 0 0
0 0 0 0 0 0 0 0 0 0 0 0 0 0 0 -0 -0 -0 0 0 0 0 0 0 0 0 0 0 0 0 0 0
0 0 0 0 0 0 0 0 0 0 0 0 0 0 0 -0 -0 0 0 0 0 0 0 0 0 0 0 0 0 0 0 0
0 0 0 0 0 0 0 0 0 0 0 0 0 0 -0 0 0 0 0 0 0 0 0 0 0 0 0 0 0 0 0 0
0 0 0 0 0 0 0 0 0 0 0 0 0 -0 -0 0 0 0 0 0 0 0 0 0 0 0 0 0 0 0 0 0
0 0 0 0 0 0 0 0 0 0 0 0 0 -0 0 0 0 0 0 0 0 0 0 0 0 0 0 0 0 0 0 0
0 0 0 0 0 0 0 0 0 0 0 0 0 0 0 0 0 0 0 0 0 0 0 0 0 0 0 0 0 0 0 0
0 0 0 0 0 0 0 0 0 0 0 0 0 0 0 0 0 0 0 0 0 0 0 0 0 0 0 0 0 0 0 0
0 0 0 0 0 0 0 0 0 0 0 0 0 0 0 0 0 0 0 0 0 0 0 0 0 0 -0 0 0 0 0 0
0 0 0 0 0 0 0 0 0 0 0 0 0 0 0 0 0 0 0 0 0 0 0 0 0 0 0 0 -0 0 0 0
0 0 0 0 0 0 0 0 0 0 0 0 0 0 0 0 0 0 0 0 0 0 0 0 0 0 0 0 0 0 0 0
0 0 0 0 0 0 0 0 0 0 0 0 0 0 0 0 0 0 0 0 0 0 0 0 0 0 0 0 0 0 0 0
0 0 0 0 0 0 0 0 0 0 0 0 0 0 0 0 0 0 0 0 0 0 0 0 0 0 0 0 0 0 0 0
Wind_Speed_500mb
33 37 37 32 29 34 29 28 39 45 40 46 60 63 65 64 67 58 50 47 45 40 40 49 53 49 44 44 46 39 48 42
34 39 39 38 35 37 29 32 43 44 43 48 60 65 67 70 74 66 53 48 42 43 50 56 59 66 58 49 50 47 39 43
30 39 42 43 44 37 31 36 45 38 43 51 61 66 70 77 77 64 59 51 55 58 62 67 72 69 62 58 46 51 44 39
24 37 44 46 46 36 35 39 45 34 43 53 61 65 72 75 72 66 68 67 66 63 65 65 65 65 63 59 52 47 52 41
23 37 44 48 44 39 37 42 40 36 46 50 57 64 70 72 70 72 77 71 67 64 62 61 62 63 62 61 60 52 52 50
24 35 42 48 40 42 39 44 41 40 44 48 57 63 69 70 74 73 77 69 65 62 62 62 62 63 62 63 61 60 53 59
25 35 42 48 38 37 35 43 39 38 41 49 57 64 68 71 73 76 77 72 66 63 62 61 62 63 61 64 63 61 56 55
25 36 42 46 37 35 36 41 36 37 41 49 57 61 67 73 79 83 77 70 61 57 58 60 61 62 65 60 55 52 54 50
29 37 42 45 40 39 38 39 36 39 44 49 54 61 68 77 83 79 69 60 56 55 57 59 57 52 55 54 56 51 48 54
31 36 41 44 47 43 41 36 37 38 42 49 54 62 71 81 80 71 60 55 53 54 57 57 52 55 58 57 60 54 43 52
29 33 40 43 51 47 42 37 37 37 45 49 56 65 76 78 69 61 55 52 52 53 55 56 59 62 67 68 66 44 37 32
24 30 39 42 49 51 41 41 35 36 47 50 58 68 76 69 66 53 52 54 49 50 55 57 58 62 70 67 60 29 14 28
20 29 39 41 50 53 42 44 38 40 45 50 60 69 71 63 54 49 53 50 50 52 54 56 60 65 66 76 64 29 8 30
19 31 35 38 46 46 39 41 37 42 47 54 62 70 65 60 47 50 50 47 49 50 50 61 57 58 59 54 43 45 51 5
19 29 30 34 42 42 41 43 42 47 53 55 64 64 61 51 45 48 47 44 47 47 49 53 59 54 54 47 31 25 68 24
17 26 24 32 42 41 44 43 43 43 46 54 62 62 66 46 46 48 45 43 44 44 44 47 51 53 54 48 39 37 28 35
17 21 23 35 39 38 42 39 39 40 47 55 63 64 65 50 48 49 47 42 41 42 43 45 49 43 49 55 46 40 37 40
13 18 25 33 35 37 41 39 39 42 49 56 63 70 63 54 49 51 43 42 43 43 42 46 48 46 47 49 42 40 46 41
10 18 26 30 31 36 38 37 38 42 46 51 61 71 69 60 54 51 41 42 43 45 47 46 47 49 50 49 40 37 38 41
12 20 25 25 30 36 34 35 37 40 43 47 56 63 68 66 58 51 41 43 45 49 50 47 47 47 47 50 46 43 37 35
Wind_Direction_500mb
20 17 15 14 11 13 13 13 9 4 2 1 357 357 356 355 356 356 356 354 349 343 339 339 336 328 315 315 309 291 280 278
7 4 7 10 9 8 8 11 7 1 1 352 351 349 349 350 350 350 350 351 349 342 333 333 330 323 318 311 304 300 287 274
359 354 1 5 7 10 7 11 5 1 354 351 346 344 344 345 346 346 347 344 337 328 323 321 321 321 317 312 301 296 291 281
354 351 358 1 3 9 8 12 4 360 351 347 342 341 341 340 342 342 342 337 330 324 323 322 321 322 318 313 306 296 292 284
352 353 356 358 2 10 11 9 9 356 350 345 337 336 336 343 346 345 343 341 337 333 327 324 323 321 320 316 310 300 291 285
349 352 351 355 360 11 10 4 3 352 349 336 334 339 343 346 345 344 343 341 336 330 327 325 323 321 320 315 309 304 292 285
352 347 348 355 1 6 2 357 354 352 343 335 339 343 345 345 344 343 343 340 336 331 328 326 324 324 321 315 309 302 294 281
354 345 350 354 0 358 356 348 348 343 338 342 343 344 344 344 343 343 342 341 337 334 332 329 324 324 325 320 312 302 296 281
348 343 348 356 356 353 352 347 343 341 341 345 347 344 344 343 342 343 342 341 338 337 336 334 331 332 328 323 314 309 294 283
337 342 347 353 355 354 352 351 348 346 348 351 349 346 345 342 342 344 342 343 343 343 343 341 341 338 332 330 325 314 295 286
334 341 346 352 353 352 353 355 352 352 353 355 350 346 344 342 344 346 347 348 350 348 348 347 345 345 338 330 328 321 312 303
331 344 347 352 347 349 355 356 0 360 359 356 349 345 344 344 346 352 351 350 350 351 350 349 347 340 334 331 337 328 359 338
336 348 352 345 344 350 355 1 10 6 3 355 349 345 347 347 350 355 353 351 355 353 351 351 345 346 345 341 344 345 269 314
348 349 349 344 344 351 356 7 16 11 5 357 351 348 350 352 358 355 353 351 359 355 355 346 347 348 347 344 340 353 334 221
351 352 346 344 345 348 356 5 9 8 5 358 353 354 358 0 360 355 353 1 356 356 356 355 346 348 353 350 341 330 334 327
354 348 343 345 345 353 2 11 18 10 8 1 358 2 4 4 360 356 360 1 359 357 357 353 352 346 346 345 342 333 326 325
350 342 344 345 347 359 5 17 18 12 10 6 7 7 5 5 1 359 2 2 357 357 357 354 353 349 354 347 346 345 341 321
338 339 347 348 351 4 10 18 17 13 12 11 12 12 11 8 4 6 10 7 2 0 358 358 351 358 360 352 354 346 345 338
343 347 357 351 359 9 13 19 19 16 14 14 13 15 16 9 8 14 17 11 7 6 3 357 359 2 5 359 3 2 3 359
352 355 359 358 9 11 16 22 23 18 15 16 15 16 17 16 15 20 19 15 12 11 7 6 4 4 8 8 11 14 15 17
Wind_Speed_850mb
33 37 37 32 29 34 29 28 39 45 40 46 60 63 65 64 67 58 50 47 45 40 40 49 53 49 44 44 46 39 48 42
34 39 39 38 35 37 29 32 43 44 43 48 60 65 67 70 74 66 53 48 42 43 50 56 59 66 58 49 50 47 39 43
30 39 42 43 44 37 31 36 45 38 43 51 61 66 70 77 77 64 59 51 55 58 62 67 72 69 62 58 46 51 44 39
24 37 44 46 46 36 35 39 45 34 43 53 61 65 72 75 72 66 68 67 66 63 65 65 65 65 63 59 52 47 52 41
23 37 44 48 44 39 37 42 40 36 46 50 57 64 70 72 70 72 77 71 67 64 62 61 62 63 62 61 60 52 52 50
24 35 42 48 40 42 39 44 41 40 44 48 57 63 69 70 74 73 77 69 65 62 62 62 62 63 62 63 61 60 53 59
25 35 42 48 38 37 35 43 39 38 41 49 57 64 68 71 73 76 77 72 66 63 62 61 62 63 61 64 63 61 56 55
25 36 42 46 37 35 36 41 36 37 41 49 57 61 67 73 79 83 77 70 61 57 58 60 61 62 65 60 55 52 54 50
29 37 42 45 40 39 38 39 36 39 44 49 54 61 68 77 83 79 69 60 56 55 57 59 57 52 55 54 56 51 48 54
31 36 41 44 47 43 41 36 37 38 42 49 54 62 71 81 80 71 60 55 53 54 57 57 52 55 58 57 60 54 43 52
29 33 40 43 51 47 42 37 37 37 45 49 56 65 76 78 69 61 55 52 52 53 55 56 59 62 67 68 66 44 37 32
24 30 39 42 49 51 41 41 35 36 47 50 58 68 76 69 66 53 52 54 49 50 55 57 58 62 70 67 60 29 14 28
20 29 39 41 50 53 42 44 38 40 45 50 60 69 71 63 54 49 53 50 50 52 54 56 60 65 66 76 64 29 8 30
19 31 35 38 46 46 39 41 37 42 47 54 62 70 65 60 47 50 50 47 49 50 50 61 57 58 59 54 43 45 51 5
19 29 30 34 42 42 41 43 42 47 53 55 64 64 61 51 45 48 47 44 47 47 49 53 59 54 54 47 31 25 68 24
17 26 24 32 42 41 44 43 43 43 46 54 62 62 66 46 46 48 45 43 44 44 44 47 51 53 54 48 39 37 28 35
17 21 23 35 39 38 42 39 39 40 47 55 63 64 65 50 48 49 47 42 41 42 43 45 49 43 49 55 46 40 37 40
13 18 25 33 35 37 41 39 39 42 49 56 63 70 63 54 49 51 43 42 43 43 42 46 48 46 47 49 42 40 46 41
10 18 26 30 31 36 38 37 38 42 46 51 61 71 69 60 54 51 41 42 43 45 47 46 47 49 50 49 40 37 38 41
12 20 25 25 30 36 34 35 37 40 43 47 56 63 68 66 58 51 41 43 45 49 50 47 47 47 47 50 46 43 37 35
Wind_Direction_850mb
20 17 15 14 11 13 13 13 9 4 2 1 357 357 356 355 356 356 356 354 349 343 339 339 336 328 315 315 309 291 280 278
7 4 7 10 9 8 8 11 7 1 1 352 351 349 349 350 350 350 350 351 349 342 333 333 330 323 318 311 304 300 287 274
359 354 1 5 7 10 7 11 5 1 354 351 346 344 344 345 346 346 347 344 337 328 323 321 321 321 317 312 301 296 291 281
354 351 358 1 3 9 8 12 4 360 351 347 342 341 341 340 342 342 342 337 330 324 323 322 321 322 318 313 306 296 292 284
352 353 356 358 2 10 11 9 9 356 350 345 337 336 336 343 346 345 343 341 337 333 327 324 323 321 320 316 310 300 291 285
349 352 351 355 360 11 10 4 3 352 349 336 334 339 343 346 345 344 343 341 336 330 327 325 323 321 320 315 309 304 292 285
352 347 348 355 1 6 2 357 354 352 343 335 339 343 345 345 344 343 343 340 336 331 328 326 324 324 321 315 309 302 294 281
354 345 350 354 0 358 356 348 348 343 338 342 343 344 344 344 343 343 342 341 337 334 332 329 324 324 325 320 312 302 296 281
348 343 348 356 356 353 352 347 343 341 341 345 347 344 344 343 342 343 342 341 338 337 336 334 331 332 328 323 314 309 294 283
337 342 347 353 355 354 352 351 348 346 348 351 349 346 345 342 342 344 342 343 343 343 343 341 341 338 332 330 325 314 295 286
334 341 346 352 353 352 353 355 352 352 353 355 350 346 344 342 344 346 347 348 350 348 348 347 345 345 338 330 328 321 312 303
331 344 347 352 347 349 355 356 0 360 359 356 349 345 344 344 346 352 351 350 350 351 350 349 347 340 334 331 337 328 359 338
336 348 352 345 344 350 355 1 10 6 3 355 349 345 347 347 350 355 353 351 355 353 351 351 345 346 345 341 344 345 269 314
348 349 349 344 344 351 356 7 16 11 5 357 351 348 350 352 358 355 353 351 359 355 355 346 347 348 347 344 340 353 334 221
351 352 346 344 345 348 356 5 9 8 5 358 353 354 358 0 360 355 353 1 356 356 356 355 346 348 353 350 341 330 334 327
354 348 343 345 345 353 2 11 18 10 8 1 358 2 4 4 360 356 360 1 359 357 357 353 352 346 346 345 342 333 326 325
350 342 344 345 347 359 5 17 18 12 10 6 7 7 5 5 1 359 2 2 357 357 357 354 353 349 354 347 346 345 341 321
338 339 347 348 351 4 10 18 17 13 12 11 12 12 11 8 4 6 10 7 2 0 358 358 351 358 360 352 354 346 345 338
343 347 357 351 359 9 13 19 19 16 14 14 13 15 16 9 8 14 17 11 7 6 3 357 359 2 5 359 3 2 3 359
352 355 359 358 9 11 16 22 23 18 15 16 15 16 17 16 15 20 19 15 12 11 7 6 4 4 8 8 11 14 15 17